Weather in Mukdahan

Thailand     16°32′42″N   104°43′40″E
temp.,
°C
wind,
m/s
gust,
m/s
humid.,
%
clouds,
%
prec.,
mm/h
press.,
hPa
HPBL,
m
11 may, tue
tue1101:00+28ssw226511 0.0 100639
04:00+27ssw226935 0.0 100646
07:00+29ssw256585 0.0 1008287
10:00+34sw444713 0.1 10081616
13:00+36wsw4439100 0.2 10052433
16:00+36sw343813 0.1 10031664
19:00+30s49584 0.1 1004207
22:00+29wsw22592 0.2 100622
12 may, wed
wed1201:00+28sw37656 0.2 1005161
04:00+27s23705 0.1 100552
07:00+29s35675 0.3 1007295
10:00+35sw444828 0.0 10081703
13:00+33ssw355199 0.2 1005668
16:00+33ssw36519 0.1 1003554
19:00+31ssw22534 0.1 100428
22:00+28wsw126952 0.4 100615
13 may, thu
thu1301:00+26nw117788 2.2 100513
04:00+25ene008446 2.6 100511
07:00+28se247419 3.2 1007196
10:00+34s44506 0.0 10071268
13:00+36ssw4442100 0.1 10042377
16:00+34sw4448100 0.1 10031177
19:00+31sw2255100 0.1 100326
22:00+29n226219 0.0 100520
14 may, fri
fri1401:00+28nw11665 0.1 100412
04:00+26ene117714 0.0 100411
07:00+29se23670 0.0 1006207
10:00+35ssw44485 0.0 10061459
13:00+36sw4441100 0.2 10032404
16:00+35s454644 0.1 10021052
19:00+32ssw235439 0.1 100356
22:00+30sse226021 0.0 100525
15 may, sat
sat1501:00+29sw226537 0.0 100427
04:00+25s22865 2.7 100541
07:00+28sse35775 3.3 1006230
10:00+34ssw45545 0.8 10071140
13:00+36ssw344499 1.5 10042209
16:00+34w234978 0.1 1003817
19:00+32ssw225694 0.1 100319
22:00+31s33600 0.0 100456